Wind_Speed
5 3 2 3 4 5 3 3 2 3 2 3 7 9 12 8 5 4 4 16 14 17 20 22 23 24 24 25 25 25 24 22 23 22 21 20 20 18 17 17 16 15 15 14 14 12 10 7 8
5 1 4 2 4 3 2 2 4 4 4 6 5 3 7 6 5 3 8 16 14 18 20 22 22 24 24 24 24 24 23 23 22 22 21 20 21 19 18 17 16 16 15 14 14 14 12 10 7
5 5 3 4 3 3 4 2 2 7 7 3 4 6 4 4 4 3 10 15 17 19 22 23 23 24 24 24 24 24 23 23 22 21 21 21 20 19 18 17 16 16 15 14 13 13 12 11 10
2 5 4 4 5 3 3 6 3 3 5 9 5 7 5 4 4 10 15 16 20 23 24 24 24 25 26 26 26 25 25 24 23 22 21 20 20 20 18 17 18 17 16 15 14 13 12 12 11
6 3 5 5 4 4 5 6 8 5 5 7 1 4 5 5 13 15 17 19 23 25 23 25 24 25 26 27 27 27 27 26 24 23 23 22 21 21 19 18 18 18 17 15 14 15 13 12 12
3 2 4 4 5 5 4 5 7 10 6 4 6 4 4 8 17 17 18 22 23 24 26 28 25 26 26 26 28 29 29 27 27 27 26 24 23 22 21 19 20 19 18 15 15 14 14 14 13
5 3 4 6 10 5 3 1 5 8 7 11 2 4 2 13 17 19 22 24 27 28 30 31 28 29 31 31 30 28 25 27 26 24 25 24 22 21 19 21 21 21 19 17 16 16 14 14 13
4 4 4 3 6 4 3 4 6 7 7 3 4 5 3 13 19 22 24 27 29 28 29 30 32 29 31 34 27 24 24 27 25 25 24 22 24 23 23 23 21 21 20 18 17 15 15 15 14
2 4 3 2 5 7 7 5 4 5 12 9 5 6 7 14 23 25 24 25 27 27 28 26 28 29 28 28 25 28 29 27 25 24 22 22 20 22 23 22 20 20 20 20 18 17 15 15 16
6 4 2 3 5 9 7 8 6 5 8 7 9 14 18 20 20 21 23 26 29 30 31 29 30 27 27 26 25 25 24 25 25 24 22 21 22 21 21 21 19 17 19 19 20 19 17 15 13
5 4 5 8 14 11 10 10 3 7 10 7 9 12 17 19 21 23 25 26 27 25 24 26 27 27 26 27 27 25 26 26 26 24 23 22 20 18 17 17 16 16 18 16 17 18 16 14 13
8 7 5 8 7 7 7 8 11 14 5 6 8 10 15 22 23 23 24 25 28 26 27 26 29 27 27 28 27 27 27 26 25 25 24 23 22 20 17 15 16 15 16 17 14 16 15 15 14
13 6 9 13 15 12 16 13 13 12 8 9 11 17 19 20 21 23 25 26 29 30 31 28 28 27 28 28 29 27 27 25 25 23 24 22 21 21 20 18 16 15 15 14 15 15 14 14 15
8 18 13 9 11 8 11 6 5 8 7 11 16 15 18 20 24 24 27 28 30 30 32 29 28 29 28 29 27 27 27 25 24 24 24 23 21 20 19 19 19 18 15 14 14 13 15 14 13
12 12 10 5 3 7 14 12 8 5 7 15 15 15 17 21 23 25 26 28 29 28 28 32 28 30 25 31 27 28 27 28 27 28 26 24 22 22 21 20 19 17 16 16 16 16 14 13 13
4 5 4 3 6 4 4 6 5 6 9 13 14 15 15 22 24 26 28 28 28 27 27 28 28 31 27 30 27 26 27 26 27 26 26 26 25 23 23 21 18 17 16 15 15 16 16 15 16
1 1 2 3 2 3 1 8 3 4 10 14 15 15 15 18 25 27 27 29 28 27 26 30 28 32 30 29 26 26 25 25 26 26 28 27 27 26 24 21 20 18 16 15 14 14 15 17 18
2 1 3 3 2 8 13 11 5 3 12 12 14 16 17 19 22 27 29 29 26 29 26 31 28 30 30 29 27 28 26 26 26 26 25 28 27 27 25 24 20 19 19 16 13 14 13 15 16
2 2 3 2 3 5 8 9 4 5 14 17 17 18 19 19 25 27 28 29 29 27 31 30 30 28 31 30 30 30 29 30 27 27 27 26 26 26 25 24 21 20 19 18 15 12 12 13 13
2 3 2 3 6 6 8 5 3 3 8 9 15 18 18 20 23 28 29 30 31 29 28 31 29 29 31 29 31 28 30 29 28 27 31 24 29 27 23 21 23 23 20 17 15 14 12 13 15
2 1 2 3 5 6 8 2 1 3 4 9 16 13 16 19 21 27 30 30 27 31 31 31 29 29 27 30 30 30 29 26 25 28 29 30 30 27 23 22 20 21 21 21 20 17 15 14 13
1 1 2 6 5 1 1 3 1 6 10 14 17 17 18 19 19 27 30 28 27 32 31 29 29 31 28 30 30 30 27 27 30 30 29 30 29 27 24 20 16 18 20 21 22 19 18 15 14
2 1 2 4 4 4 3 2 1 5 10 19 18 18 18 19 18 23 28 25 28 28 28 30 30 30 30 31 31 30 29 27 29 29 30 28 29 28 24 20 20 21 20 24 20 18 16 17 15
4 3 5 3 2 1 1 1 2 3 10 13 16 17 19 19 19 24 26 25 28 29 29 32 31 29 30 29 31 30 30 31 31 33 26 29 28 28 27 28 21 19 18 18 15 15 17 17 14
9 3 2 0 1 2 2 2 0 3 6 9 14 16 17 18 17 22 26 27 28 31 29 32 32 33 33 31 32 30 29 28 29 30 27 30 29 27 30 30 22 17 14 13 8 8 10 16 13
4 2 2 4 3 4 2 4 2 5 4 8 11 12 15 17 16 21 24 26 26 29 28 31 33 31 33 31 30 28 27 26 27 29 29 28 29 29 32 28 28 17 15 12 8 9 8 10 15
1 5 1 4 1 1 2 2 1 3 9 12 12 13 16 17 17 20 24 25 26 27 28 32 32 29 31 31 30 27 27 26 26 27 28 29 29 30 31 32 25 23 15 11 8 6 10 8 10
5 4 1 3 3 4 3 3 2 5 13 13 15 15 16 16 17 21 23 25 24 25 28 30 29 28 30 30 28 26 25 25 24 25 28 29 31 31 31 33 31 22 17 12 9 7 6 5 7
2 2 6 4 1 1 4 3 6 3 6 9 12 13 15 17 16 19 22 23 23 25 28 29 30 29 31 30 28 26 26 25 25 24 26 30 33 32 32 33 31 27 18 10 8 6 5 4 6
2 2 2 3 2 2 1 6 9 4 5 5 10 11 14 15 15 19 21 23 24 25 28 30 30 30 30 28 27 26 26 26 26 25 26 32 32 34 34 37 33 30 17 7 7 5 4 4 4
Wind_Direction
353 5 79 40 70 72 87 74 39 52 91 71 42 65 92 58 34 83 351 1 1 5 2 1 356 353 352 351 349 347 347 343 341 342 344 343 343 344 349 350 347 350 354 356 359 353 359 310 275
18 37 51 74 85 113 120 98 56 20 111 123 71 66 50 68 41 70 10 5 5 1 359 357 352 349 347 346 344 342 342 339 337 335 336 335 336 336 335 337 340 344 337 343 347 346 347 340 324
65 74 69 73 76 103 136 35 344 57 91 35 104 50 61 7 31 23 4 359 359 359 355 354 349 344 342 339 338 336 333 331 328 327 326 326 328 326 327 329 332 333 334 329 328 334 336 338 333
92 38 54 68 85 63 53 11 300 187 52 38 97 74 89 2 6 7 356 2 356 356 354 351 347 343 340 338 335 332 328 324 320 317 318 316 318 319 317 318 321 325 325 325 319 314 321 326 324
53 65 73 81 88 94 65 59 71 88 97 38 74 83 75 36 14 4 10 5 358 351 349 350 349 345 341 337 334 331 327 324 318 313 312 309 308 310 309 312 317 318 315 318 319 317 307 311 310
56 86 78 145 123 113 90 58 70 68 58 29 66 78 69 18 12 10 3 358 357 355 352 347 343 344 341 336 331 325 321 318 312 309 307 305 303 303 302 302 309 313 312 307 309 310 319 307 299
101 76 128 139 138 130 94 17 54 60 48 33 46 81 88 8 359 357 355 352 351 349 347 346 345 341 338 333 329 324 320 320 315 313 307 305 302 302 303 299 301 303 304 301 301 297 301 309 305
91 87 92 72 155 103 120 89 76 51 47 324 10 45 11 340 352 352 350 352 353 353 350 345 343 341 338 334 333 329 322 320 315 311 308 304 302 301 300 296 290 296 290 290 298 296 295 293 304
93 72 93 91 158 131 145 114 52 65 76 57 46 51 344 348 359 359 356 352 350 349 348 346 343 340 339 336 327 327 324 321 319 315 312 310 309 309 308 305 293 286 285 286 287 291 288 291 291
47 72 75 302 123 125 100 100 103 84 57 44 32 16 6 4 3 360 355 350 347 345 346 345 343 341 338 339 334 332 332 328 323 322 315 311 310 308 303 297 293 287 282 278 283 283 281 284 282
30 90 133 59 103 110 105 75 62 114 54 33 18 358 0 358 2 359 352 349 342 338 339 346 347 346 344 343 343 341 337 335 332 330 327 319 312 309 309 308 302 299 294 283 281 283 276 276 281
99 49 94 109 103 97 94 101 74 67 74 25 26 10 6 5 359 351 345 344 340 339 337 340 344 343 338 337 338 336 334 332 331 328 327 328 319 312 310 307 304 305 298 293 282 286 278 278 278
85 102 59 97 93 87 98 89 95 65 41 26 23 21 11 360 350 348 346 341 343 341 340 337 337 342 341 340 337 332 328 327 321 320 321 321 318 316 310 309 305 301 299 292 288 284 279 282 274
98 104 107 95 105 130 106 81 87 39 12 33 25 13 2 355 351 344 346 344 345 342 339 337 337 339 342 338 333 331 331 326 328 324 319 316 313 311 310 306 300 296 294 292 288 282 287 281 274
115 98 104 119 121 130 112 48 68 21 14 35 15 4 357 354 349 346 343 342 342 340 342 341 340 342 333 338 327 328 324 325 322 326 322 317 313 309 306 303 302 300 295 291 283 279 280 271 272
94 129 140 170 176 162 335 107 62 11 23 25 7 1 354 349 346 346 345 343 342 340 342 345 342 342 336 335 329 324 321 319 314 313 313 314 313 309 303 292 292 297 296 293 286 280 273 268 267
54 194 130 164 242 119 47 132 143 25 30 23 9 356 352 346 349 347 346 345 343 343 343 344 343 342 339 333 329 326 323 318 315 310 312 310 309 309 305 297 289 286 285 288 288 285 272 267 266
243 174 102 158 102 55 96 128 158 49 29 19 5 356 349 346 343 345 347 347 346 347 350 348 347 343 339 336 333 330 328 325 323 318 310 311 310 306 306 300 295 286 273 275 278 285 281 268 266
222 143 118 99 76 96 135 145 165 32 30 13 2 354 346 344 343 347 349 349 349 354 351 351 344 344 341 339 336 335 332 330 325 325 323 311 310 317 307 297 294 290 278 272 270 274 274 275 266
124 115 88 98 65 91 154 143 168 9 29 14 354 345 342 340 344 348 352 354 354 352 351 350 348 344 343 340 337 335 330 326 325 329 330 328 330 322 316 311 292 292 289 277 262 248 259 266 261
51 102 147 85 113 67 142 221 284 316 336 351 349 340 345 344 341 346 352 354 353 354 351 350 346 345 343 341 336 334 334 333 331 330 329 333 334 334 327 319 315 302 289 277 272 252 238 253 259
97 19 250 151 160 142 259 299 9 328 321 347 343 350 347 345 346 347 350 353 355 352 350 348 348 348 345 340 341 338 333 332 327 327 333 332 336 336 331 326 318 311 303 283 265 257 236 235 249
247 336 114 135 107 134 196 271 134 338 331 344 339 342 344 346 346 347 350 349 351 350 349 348 347 346 343 340 345 342 337 332 328 330 337 336 334 333 333 323 322 313 303 289 265 252 240 230 233
310 116 67 70 88 280 136 235 157 22 326 326 332 341 344 344 346 346 348 348 355 352 350 350 351 348 348 346 347 346 342 336 334 336 338 340 338 335 335 338 327 332 328 331 269 253 249 234 230
35 60 341 348 344 284 113 221 332 182 336 320 327 335 338 342 345 344 348 350 356 353 350 347 350 348 346 349 348 349 348 343 339 338 341 340 339 337 337 338 331 333 329 342 303 279 261 243 243
24 52 99 283 311 303 282 238 53 173 303 317 320 327 341 345 346 346 348 350 353 352 351 347 350 349 349 347 349 351 352 349 347 343 345 345 341 340 343 339 351 333 336 335 323 305 286 263 250
40 52 180 104 88 287 265 274 137 262 336 334 341 346 345 344 344 346 351 354 356 353 348 349 349 350 350 350 351 354 354 352 349 350 350 346 342 342 344 348 336 347 327 321 316 296 290 262 256
75 145 95 33 27 310 289 280 221 338 327 335 342 345 344 344 344 349 353 354 356 353 349 351 352 349 351 353 355 353 353 353 353 354 353 349 345 346 346 348 345 331 337 311 308 303 304 269 285
16 62 62 107 53 208 313 291 180 177 309 316 334 334 340 342 344 350 354 355 353 353 353 352 353 353 352 354 356 357 357 355 356 356 357 358 351 347 347 343 342 337 336 318 297 298 291 260 258
81 135 122 119 218 62 106 277 169 168 301 308 326 337 341 345 343 349 356 356 358 355 354 353 354 355 354 355 357 359 359 359 359 359 359 5 356 353 352 345 343 341 337 301 288 281 291 260 258
Height
796 796 796 797 816 830 857 862 859 862 865 869 867 866 875 879 882 884 886 885 882 879 876 873 872 869 866 862 860 857 853 849 846 844 841 839 836 834 831 827 825 823 822 820 818 815 814 814 813
796 796 797 805 826 838 859 860 867 868 867 870 872 873 875 886 884 886 886 885 883 880 876 874 871 868 865 862 859 856 853 850 846 843 840 837 835 833 830 827 824 821 819 818 816 816 813 812 810
796 796 806 825 845 850 857 868 869 872 868 869 875 878 881 888 888 889 889 886 883 880 876 872 871 867 864 861 857 854 852 849 846 842 839 836 833 831 828 826 823 820 818 816 815 813 813 811 810
796 800 817 835 858 868 868 873 872 870 871 873 876 882 888 892 892 891 889 885 882 879 875 872 869 866 863 859 855 852 849 846 843 841 837 835 832 830 827 824 821 818 816 814 812 811 810 809 809
798 809 834 853 865 870 873 874 870 872 877 878 877 888 889 894 893 891 888 885 881 878 875 870 867 863 860 857 853 849 846 843 840 837 834 832 830 827 824 821 819 816 814 811 810 808 807 806 807
808 815 835 851 865 873 877 877 876 879 881 882 883 888 893 895 892 891 888 885 882 878 873 869 864 860 857 853 850 847 843 840 837 834 831 828 826 823 820 818 815 812 810 808 808 807 804 803 802
814 826 847 855 863 871 877 879 882 885 886 887 888 890 894 894 893 891 888 884 879 875 871 866 862 857 853 849 846 843 839 836 834 830 827 824 822 819 817 815 812 809 807 806 805 804 803 801 799
815 828 851 859 864 877 880 882 888 888 891 892 891 894 896 897 894 890 886 882 879 875 871 866 861 856 850 846 841 839 836 833 829 826 824 820 817 814 812 810 808 806 805 803 801 800 798 798 796
816 835 854 861 860 879 880 883 889 894 893 895 898 900 903 899 893 889 885 881 876 872 869 864 859 854 849 844 839 833 830 827 822 819 817 816 812 809 806 804 802 801 800 798 797 796 795 794 792
828 848 865 870 869 875 882 884 890 895 897 899 900 902 901 897 894 890 885 880 876 871 866 861 856 851 846 841 836 832 826 822 818 815 812 809 807 804 802 799 796 796 796 795 794 793 791 790 788
848 859 869 874 872 876 884 889 893 895 903 909 908 906 901 897 893 889 885 882 877 872 867 862 856 850 845 839 834 829 824 820 815 810 808 804 801 799 796 792 792 789 789 789 788 788 785 785 785
857 869 868 876 878 879 885 892 902 903 911 912 910 908 903 897 893 890 885 880 875 869 863 858 854 850 845 840 833 828 824 819 814 810 806 801 799 796 793 790 788 784 784 783 783 783 781 780 780
861 872 876 879 881 886 889 897 901 910 913 911 910 906 902 900 895 890 886 881 874 867 861 856 852 847 843 838 832 827 823 818 814 809 803 801 797 792 789 784 784 783 781 780 780 778 777 776 776
869 874 880 884 885 890 892 901 898 914 914 911 906 906 903 899 895 890 884 878 872 866 861 856 850 845 841 837 832 826 820 815 811 806 801 798 794 790 786 783 781 779 778 777 775 774 773 772 772
870 879 882 886 886 892 888 906 916 917 914 908 908 905 902 899 894 888 882 877 871 866 861 856 850 844 841 835 831 825 819 813 807 802 797 794 790 785 782 780 777 775 774 772 772 771 769 768 768
868 873 875 885 886 889 890 916 918 916 913 910 909 905 902 898 893 887 883 877 872 866 861 856 850 844 839 834 829 823 816 811 805 800 796 791 786 783 779 776 774 772 771 769 768 766 765 764 766
868 865 873 885 886 889 891 914 916 915 913 910 908 905 901 895 891 887 881 877 871 865 860 855 849 844 837 831 825 819 814 808 803 797 792 787 782 778 775 771 768 767 766 765 763 762 761 761 761
865 866 873 878 890 895 903 912 914 914 911 912 908 904 900 895 890 886 880 876 870 865 860 854 848 842 836 829 823 817 810 805 800 794 788 782 777 773 769 765 762 761 760 759 758 757 757 757 756
870 868 874 887 892 897 905 911 911 911 909 907 907 904 900 896 891 886 880 875 870 864 858 853 846 841 834 827 820 813 807 801 795 789 783 777 772 767 763 760 757 755 754 753 753 752 752 753 753
869 871 880 890 892 898 910 911 911 911 910 913 911 907 903 895 890 883 877 872 868 863 857 851 845 839 833 828 821 815 806 799 793 787 781 774 769 763 759 756 753 750 748 747 746 746 748 748 749
871 872 881 882 897 902 907 906 910 910 912 911 910 908 902 898 891 883 876 872 867 863 856 851 845 839 833 827 819 811 805 798 791 784 777 772 766 760 755 751 748 745 743 742 741 742 743 744 744
871 881 882 885 886 885 905 882 910 917 910 911 908 905 902 896 890 885 878 872 868 863 858 852 846 840 833 826 819 812 804 796 789 782 776 769 763 757 753 749 745 742 739 736 735 735 736 739 740
875 880 879 887 890 895 901 897 916 922 911 911 908 905 901 897 892 885 880 874 869 864 858 852 846 839 832 825 819 811 804 797 788 781 774 767 760 755 749 745 742 738 734 729 728 729 731 733 735
880 878 883 891 888 880 901 896 908 917 920 915 909 905 900 895 891 887 882 875 869 864 858 852 845 839 831 824 818 811 803 795 787 779 772 765 759 752 747 741 737 733 729 723 723 724 726 728 729
882 879 870 867 871 871 907 902 898 917 919 917 912 906 900 896 890 885 879 873 868 863 857 851 845 838 831 824 817 810 803 796 788 780 772 765 757 750 744 739 734 730 726 723 721 722 722 723 724
893 891 880 873 879 884 906 889 895 914 916 914 910 906 901 896 890 885 880 875 869 864 858 851 845 838 831 824 817 810 804 796 789 781 775 767 759 751 744 737 731 728 724 721 719 719 719 720 720
887 895 907 904 920 909 891 900 909 913 909 910 908 904 900 896 891 885 881 876 870 865 858 852 846 840 832 825 818 811 803 796 790 782 776 768 760 752 744 737 730 725 722 720 718 717 717 717 717
892 907 892 904 898 881 885 904 891 908 908 910 905 903 900 895 890 886 881 876 871 866 860 853 847 841 834 827 819 811 804 797 791 784 776 769 760 752 744 736 729 723 719 717 716 715 714 714 714
899 900 922 922 925 898 907 873 905 910 911 912 909 905 900 895 890 885 881 876 871 866 860 853 847 840 833 827 820 813 805 798 792 785 777 769 761 753 745 736 728 721 717 715 714 714 713 713 713
909 911 914 904 922 957 947 897 902 908 910 911 908 904 900 895 891 886 881 876 870 865 859 853 846 840 834 828 821 814 806 799 792 785 778 770 763 754 747 735 726 718 714 712 712 713 712 712 712